Regional Weather Roundup
Issued by NWS Midland/Odessa, TX

Skip options and go directly to product.
Home | Oldest Version | Previous Version | Current Version | All | Text Only | Save Text | Print | Product List | Glossary On

Skip product version selection by date and time.   
657
ASUS44 KMAF 011910
RWRMAF
MIDLAND AREA WEATHER ROUNDUP
NATIONAL WEATHER SERVICE MIDLAND TX
100 PM CST SUN MAR 01 2015

...IN SOUTHWEST TEXAS AND SOUTHEAST NEW MEXICO...

CITY           SKY/WX    TMP DP  RH WIND       PRES   REMARKS
ALPINE         PTSUNNY   61  39  43 NE8       30.22F
ANDREWS        CLOUDY    34  34 100 E6        30.24F WCI  29
ARTESIA        CLOUDY    34  34 100 CALM      30.21F
BIG SPRING     CLOUDY    33  32  94 NE6       30.29F WCI  28
CARLSBAD       CLOUDY    40  33  76 SE8       30.19F WCI  34
DRYDEN           N/A     47  42  83 VRB3      30.21F
FORT STOCKTON  CLOUDY    40  37  89 NW5       30.21F WCI  37
GUAD PASS      NOT AVBL
HOBBS          CLOUDY    34  34 100 SE6       30.22F WCI  29
MARFA          PTSUNNY   68  34  28 S8        30.18F
MIDLAND AIRPK  CLOUDY    35  35 100 NE6       30.26F FOG     WCI  30
MIDLAND INTL   CLOUDY    36  34  92 NE8       30.24F FOG     WCI  30
ODESSA         CLOUDY    36  33  89 E6        30.24F FOG     WCI  31
PECOS          CLOUDY    39  35  84 CALM      30.23F
PRESIDIO       FAIR      58  37  44 E7        30.13F
SEMINOLE       CLOUDY    35  33  94 CALM      30.24F
SNYDER         CLOUDY    29  29  98 NE6       30.30F FOG     WCI  23
WINK           CLOUDY    39  34  82 E6        30.23F WCI  35
$$
...OTHER STATIONS IN TEXAS...

CITY           SKY/WX    TMP DP  RH WIND       PRES   REMARKS
ABILENE        CLOUDY    31  29  92 N9        30.32F FOG     WCI  23
AMARILLO       CLOUDY    30  28  92 E5        30.27S FOG     WCI  25
AUSTIN         CLOUDY    41  41 100 N13       30.27F FOG     WCI  34
BROWNSVILLE    CLOUDY    56  54  93 N6        30.19F
CORPUS CHRISTI DRZL/FOG  51  50  96 N9        30.19F VSB 1/2
DALLAS FTW     LGT RAIN  35  34  96 N13       30.34F FOG     WCI  26
DEL RIO        CLOUDY    49  46  90 NW9       30.21F
EL PASO        MOSUNNY   69  29  22 S12G17    30.09F
HOUSTON INT    FOG       58  57  97 N7        30.21F VSB 1/4
LUBBOCK        CLOUDY    31  28  89 NE3       30.26S FOG
SAN ANGELO     CLOUDY    36  35  96 NE8       30.27F FOG     WCI  30
SAN ANTONIO    DRIZZLE   47  44  90 N13       30.21F FOG
WACO           CLOUDY    39  38  96 N10       30.31F FOG     WCI  32
WICHITA FALLS  NOT AVBL
$$
...OTHER LOCATIONS IN NEW MEXICO...

CITY           SKY/WX    TMP DP  RH WIND       PRES   REMARKS
ALAMAGORDO     SUNNY     68  28  22 S9G21     30.11F
ALBUQUERQUE    PTSUNNY   46  36  68 W6        30.12F
CANNON AFB     CLOUDY    31  29  93 VRB1      30.20F
CLOVIS         CLOUDY    30  28  93 NE3       30.22S
HOLLOMAN AFB   SUNNY     69  32  24 SW10      30.08F
ROSWELL        CLOUDY    33  31  92 S6        30.20F WCI  28
RUIDOSO        SUNNY     59  27  29 S22G29    30.16S
SANTA FE       MOSUNNY   47  36  65 SW7       30.12F
TRUTH OR CONSE SUNNY     66  25  21 S20G29    30.07F
TUCUMCARI      CLOUDY    32  28  85 NE8       30.21S WCI  25
$$

USA.gov is the U.S. government's official web portal to all federal, state and local government web resources and services.